Weather in Verkhniy Tashtyp

Russia / Republic of Khakassia     52°48′44″N   89°26′37″E
temp.,
°C
wind,
m/s
gust,
m/s
humid.,
%
clouds,
%
prec.,
mm/h
press.,
hPa
HPBL,
m
22 january, sat
sat2201:00−24nw11100100 0.1 10369
04:00−24wnw1110087 0.0 10369
07:00−24w1110067 0.0 10369
10:00−22w009871 0.0 103721
13:00−13e118740 0.0 1034184
16:00−12e11886 0.0 1033155
19:00−21wnw1110052 0.0 10389
22:00−23wnw1110046 0.0 10399
23 january, sun
sun2301:00−24wnw1110051 0.0 10409
04:00−24wnw1110049 0.0 10409
07:00−24wnw1110043 0.0 10409
10:00−21wnw0010061 0.0 103917
13:00−12ene1184100 0.0 1035147
16:00−11e118569 0.0 103495
19:00−20wnw1110098 0.0 10379
22:00−21w11100100 0.0 103810
24 january, mon
mon2401:00−18w1199100 0.0 103613
04:00−18wsw1198100 0.0 103616
07:00−16w1197100 0.0 103622
10:00−13wsw1194100 0.1 1037104
13:00−10w1284100 0.3 1036470
16:00−10w1283100 0.1 1037463
19:00−16w119782 0.1 104111
22:00−18w119971 0.0 104315
25 january, tue
tue2501:00−22w1110041 0.0 104410
04:00−24w1110063 0.0 104410
07:00−25w1110054 0.0 104510
10:00−20w119771 0.0 104333
13:00−13ese008565 0.0 1039226
16:00−11ese1085100 0.0 1038215
19:00−16wnw009899 0.0 10409
22:00−18nnw119983 0.0 10419
26 january, wed
wed2601:00−22nw1110074 0.0 10429
04:00−23wnw1110073 0.0 10429
07:00−23wnw1110066 0.0 10439
10:00−20nnw009963 0.0 104229
13:00−13e118748 0.0 1038201
16:00−12e128842 0.0 1037208
19:00−21nne1110074 0.0 10419
22:00−23nnw1010086 0.0 10429